Home   Weather   Edmundston   Past weeks

Flag for Canada Past Weather in Edmundston, New Brunswick, Canada — Yesterday and Last 2 Weeks

Now
26 °F

Chilly.


Feels Like: 15 °F
Forecast: 23 / 37 °F
Wind: 12 mph from North

Location: Riviere Du Loup

Current Time: Apr 24, 2017 at 6:32:27 am

Latest Report: Apr 24, 2017 at 6:00 am


Visibility: N/A

Pressure: 30.16 "Hg

Humidity: 64%

Dew Point: 15 °F

Location of EdmundstonLocation

Past Weather in Edmundston — Graph

°F

Edmundston Temperature Yesterday

Maximum temperature yesterday: 50 °F (at 8:00 pm)
Minimum temperature yesterday: 31 °F (at 8:00 am)
Average temperature yesterday: 38 °F

High & Low Weather Summary for the Past Weeks

 TemperatureHumidityPressure
High64 °F (Apr 10, 4:00 pm)100% (Apr 13, 11:00 am)30.58 "Hg (Apr 13, 11:00 am)
Low24 °F (Apr 19, 2:00 am)27% (Apr 10, 4:00 pm)29.68 "Hg (Apr 16, 6:00 am)
Average37 °F78%30.10 "Hg
* Reported Apr 9 5:00 am — Apr 24 5:00 am, Edmundston, Weather by CustomWeather, © 2017

Note: Actual official high and low records may vary slightly from our data, if they occured in-between our weather recording intervals... More about our weather records

Advertising

Edmundston Weather History for the Previous 24 Hours

Scroll right to see more
 ConditionsComfort  
Time TempWeatherWind HumidityBarometerVisibility
5:00 am
Mon, Apr 24
27 °FChilly.8 mph64%30.13 "HgN/A
4:00 am29 °FChilly.9 mph62%30.10 "HgN/A
3:00 am30 °FChilly.10 mph63%30.08 "HgN/A
2:00 am32 °FChilly.13 mph64%30.05 "HgN/A
1:00 am33 °FChilly.13 mph69%30.02 "HgN/A
12:00 am36 °FChilly.9 mph72%29.99 "HgN/A
11:00 pm
Sun, Apr 23
38 °FChilly.10 mph68%29.97 "HgN/A
10:00 pm40 °FChilly.9 mph79%29.93 "HgN/A
9:00 pm42 °FQuite cool.10 mph74%29.91 "HgN/A
8:00 pm50 °FCool.9 mph62%29.85 "HgN/A
7:00 pm49 °FCool.10 mph63%29.83 "HgN/A
6:00 pm49 °FCool.12 mph60%29.83 "HgN/A
5:00 pm47 °FCool.9 mph63%29.85 "HgN/A
4:00 pm45 °FQuite cool.10 mph70%29.89 "HgN/A
3:00 pm42 °FQuite cool.8 mph76%29.94 "HgN/A
2:00 pm41 °FQuite cool.6 mph82%29.95 "HgN/A
1:00 pm40 °FChilly.6 mph82%29.98 "HgN/A
12:00 pm39 °FChilly.6 mph97%30.01 "HgN/A
11:00 am36 °FChilly.5 mph98%30.02 "HgN/A
10:00 am33 °FChilly.3 mph100%30.01 "HgN/A
9:00 am34 °FChilly.2 mph98%30.02 "HgN/A
8:00 am31 °FChilly.1 mph100%30.01 "HgN/A
7:00 am32 °FChilly.1 mph100%30.00 "HgN/A
6:00 am32 °FChilly.3 mph100%30.00 "HgN/A
Weather by CustomWeather, © 2017

See weather overviewHow to use our weather pages